Find Starlink 4067

NORAD ID: 52668 Int'l Des: 2022-053 Owner: SPXS Country: US Constellation: starlink operational
LEOCIRCULAR

当前视图

正在加载3D地球...

About Starlink 4067

Starlink 4067 (NORAD 52668) is a starlink constellation satellite (v1.5) launched May 18, 2022 by SPXS of US. It operates in LEO, CIRCULAR orbit with a mass of 297.00 kg.

关于 Starlink 4067

正在加载描述...

即将过境

Passes for default location (London). Set your location on the main map for personalized predictions.

高度历史

Loading altitude history...

两行轨道根数

1 52668U 22053N 26170.41022849 -.00000271 00000-0 10727-5 0 9998
2 52668 53.1611 57.3716 0001369 93.1767 266.9381 15.08828095226402
Epoch: Jun 19, 2026 • Age: 16 hours

当前状态

高度 544.2 km
速度 7.60 km/s
星下点 47.45°N, 169.74°E
发射日期 May 18, 2022
运行时间 4 years
类型 internet

技术详情

分类 Payload
质量 297.00 kg
干质量 275.00 kg
总质量 297.00 kg
长度 0.20 m
直径 2.80 m
跨度 9.00 m
形状 Box + pan
制造商 SPXS
平台类型 Starlink
阶段状态 In Orbit
所有者/国家 SPXS/US

Most Searched